This demonstration page uses our WeatherBlox Daily Observations layout. Learn more.

Left ArrowRight Arrow

44.8408, -93.29828

Hourly Observations for March 8, 2017

Temp ( °F °C ) Dew Point ( °F °C ) Humidity (%) Winds ( mph kmh ) Pressure ( in mb ) Visibility ( mi km ) Precip ( " mm )
12:53 am 00:53 Cloudy 35 1.7 13 -10.6 40 40 W 28 44 29.72 1007 10 16 0.00 0.00
1:53 am 01:53 Cloudy 33 0.6 16 -8.9 49 49 WNW 26 43 29.74 1007 10 16 0.00 0.03
2:53 am 02:53 Cloudy 31 -0.6 14 -10 49 49 W 24 39 29.75 1008 10 16 0.00 0.03
3:53 am 03:53 Windy with Snow Likely 28 -2.2 16 -8.9 60 60 WNW 31 50 29.78 1009 9 14 0.00 0.03
4:53 am 04:53 Cloudy 28 -2.2 12 -11.1 51 51 WNW 35 56 29.80 1009 10 16 0.00 0.03
5:53 am 05:53 Cloudy 27 -2.8 11 -11.7 51 51 W 32 52 29.82 1010 10 16 0.00 0.03
6:53 am 06:53 Mostly Cloudy 25 -3.9 11 -11.7 55 55 WNW 30 48 29.85 1011 10 16 0.00 0.03
7:53 am 07:53 Mostly Cloudy 24 -4.4 7 -13.9 48 48 WNW 33 54 29.89 1012 10 16 0.00 0.00
8:53 am 08:53 Mostly Sunny 25 -3.9 6 -14.4 44 44 WNW 32 52 29.93 1014 10 16 0.00 0.00
9:53 am 09:53 Mostly Sunny 26 -3.3 6 -14.4 42 42 W 28 44 29.96 1015 10 16 0.00 0.00
10:53 am 10:53 Mostly Sunny 28 -2.2 6 -14.4 39 39 W 24 39 30.00 1016 10 16 0.00 0.00
11:53 am 11:53 Mostly Sunny 30 -1.1 8 -13.3 39 39 W 29 46 30.02 1017 10 16 0.00 0.00
12:53 pm 12:53 Sunny 31 -0.6 7 -13.9 36 36 W 24 39 30.05 1018 10 16 0.00 0.00
1:53 pm 13:53 Sunny 33 0.6 9 -12.8 36 36 WNW 22 35 30.05 1018 10 16 0.00 0.00
2:53 pm 14:53 Mostly Cloudy 32 0 8 -13.3 36 36 WNW 22 35 30.10 1019 10 16 0.00 0.00
3:53 pm 15:53 Mostly Cloudy 32 0 10 -12.2 40 40 WNW 16 26 30.11 1020 10 16 0.00 0.00
4:53 pm 16:53 Mostly Sunny 32 0 9 -12.8 38 38 NW 16 26 30.13 1020 10 16 0.00 0.00
5:53 pm 17:53 Mostly Sunny 31 -0.6 10 -12.2 42 42 WNW 16 26 30.15 1021 10 16 0.00 0.00
6:53 pm 18:53 Mostly Clear 29 -1.7 11 -11.7 47 47 WNW 14 22 30.18 1022 10 16 0.00 0.00
7:53 pm 19:53 Cloudy 29 -1.7 12 -11.1 49 49 WNW 8 13 30.20 1023 10 16 0.00 0.00
8:53 pm 20:53 Cloudy 29 -1.7 12 -11.1 49 49 NW 9 15 30.21 1023 10 16 0.00 0.00
9:53 pm 21:53 Cloudy 28 -2.2 13 -10.6 53 53 WNW 8 13 30.23 1024 10 16 0.00 0.00
10:53 pm 22:53 Cloudy 28 -2.2 13 -10.6 53 53 NW 9 15 30.23 1024 10 16 0.00 0.00
11:53 pm 23:53 Cloudy 28 -2.2 12 -11.1 51 51 NW 12 19 30.24 1024 10 16 0.00 0.00

Powered by AerisWeather